Starlink 32604

operational
NORAD ID: 62070 Int'l Des: 2024-217 Owner: SPXS Country: US Constellation: starlink
LEOCIRCULAR

Starlink 32604について

説明を読み込み中...

リアルタイム位置

3D地球を読み込み中...

次回通過

高度履歴

Altitude vs Time

uPlot chart will show altitude changes over time

軌道要素

1 62070U 24217P 25353.00002762 .00015596 00000-0 53768-3 0 9994
2 62070 53.1575 208.9588 0001306 78.6864 281.4284 15.30193788 61069
Epoch: Dec 19, 2025 • Age: 27 hours

現在のステータス

高度 476.5 km
速度 7.63 km/s
衛星直下点 30.95°N, 140.7°W
打ち上げ日 Nov 24, 2024
運用期間 1 years
タイプ internet

技術仕様

分類 Payload
質量 730.00 kg
乾燥質量 700.00 kg
総質量 730.00 kg
長さ 0.30 m
直径 4.10 m
スパン 29.00 m
形状 Box + pan
製造者 SPXS
バスタイプ Starlink V2M
フェーズステータス In Orbit
所有者/国 SPXS/US

大規模コンステレーション

Loading constellations...